Time,TemperatureF,DewpointF,PressureIn,WindDirection,WindDirectionDegrees,WindSpeedMPH,WindSpeedGustMPH,Humidity,HourlyPrecipIn,Conditions,Clouds,dailyrainin,SoftwareType,DateUTC
2013-06-10 00:08:00,54.0,52.0,30.40,NNW,328,0.0,1.0,92,0.00,,,0.01,weatherlink.com 1.10,2013-06-10 04:08:00,
2013-06-10 00:23:00,53.7,52.0,30.39,NNW,328,0.0,2.0,93,0.00,,,0.01,weatherlink.com 1.10,2013-06-10 04:23:00,
2013-06-10 00:38:00,53.5,52.0,30.39,NNW,328,1.0,2.0,93,0.00,,,0.01,weatherlink.com 1.10,2013-06-10 04:38:00,
2013-06-10 00:53:00,53.6,52.0,30.39,NNW,328,0.0,1.0,93,0.00,,,0.01,weatherlink.com 1.10,2013-06-10 04:53:00,
2013-06-10 01:08:00,53.5,51.0,30.39,NNW,328,1.0,1.0,92,0.00,,,0.01,weatherlink.com 1.10,2013-06-10 05:08:00,
2013-06-10 01:23:00,53.3,51.0,30.39,NNW,327,0.0,1.0,91,0.00,,,0.01,weatherlink.com 1.10,2013-06-10 05:23:00,
2013-06-10 01:38:00,53.1,51.0,30.39,NNW,328,1.0,1.0,92,0.00,,,0.01,weatherlink.com 1.10,2013-06-10 05:38:00,
2013-06-10 01:53:00,53.2,51.0,30.39,NNW,328,1.0,1.0,92,0.00,,,0.00,weatherlink.com 1.10,2013-06-10 05:53:00,
2013-06-10 02:08:00,53.2,51.0,30.38,NNW,328,0.0,1.0,93,0.00,,,0.00,weatherlink.com 1.10,2013-06-10 06:08:00,
2013-06-10 02:23:00,52.7,51.0,30.38,NNW,327,2.0,2.0,93,0.00,,,0.00,weatherlink.com 1.10,2013-06-10 06:23:00,
2013-06-10 02:38:00,53.0,51.0,30.38,NNW,328,0.0,1.0,94,0.00,,,0.00,weatherlink.com 1.10,2013-06-10 06:38:00,
2013-06-10 02:53:00,53.6,52.0,30.38,NNW,328,0.0,1.0,93,0.00,,,0.00,weatherlink.com 1.10,2013-06-10 06:53:00,
2013-06-10 03:08:00,53.8,51.0,30.38,NNW,328,0.0,1.0,91,0.00,,,0.00,weatherlink.com 1.10,2013-06-10 07:08:00,
2013-06-10 03:23:00,53.7,52.0,30.38,NNW,328,1.0,1.0,92,0.00,,,0.00,weatherlink.com 1.10,2013-06-10 07:23:00,
2013-06-10 03:38:00,53.6,51.0,30.37,NNW,328,0.0,1.0,92,0.00,,,0.00,weatherlink.com 1.10,2013-06-10 07:38:00,
2013-06-10 03:53:00,53.5,52.0,30.37,NNW,327,1.0,1.0,93,0.00,,,0.00,weatherlink.com 1.10,2013-06-10 07:53:00,
2013-06-10 04:08:00,53.8,52.0,30.37,NNW,328,2.0,2.0,92,0.00,,,0.00,weatherlink.com 1.10,2013-06-10 08:08:00,
2013-06-10 04:23:00,54.1,52.0,30.37,NNW,328,0.0,2.0,91,0.00,,,0.00,weatherlink.com 1.10,2013-06-10 08:23:00,
2013-06-10 04:38:00,53.8,52.0,30.37,NW,305,0.0,2.0,92,0.00,,,0.00,weatherlink.com 1.10,2013-06-10 08:38:00,
2013-06-10 04:53:00,53.9,52.0,30.36,NNW,339,0.0,2.0,92,0.00,,,0.00,weatherlink.com 1.10,2013-06-10 08:53:00,
2013-06-10 05:08:00,53.9,51.0,30.36,NNW,332,1.0,2.0,91,0.00,,,0.00,weatherlink.com 1.10,2013-06-10 09:08:00,
2013-06-10 05:23:00,54.0,52.0,30.36,NNW,332,0.0,2.0,92,0.00,,,0.00,weatherlink.com 1.10,2013-06-10 09:23:00,
2013-06-10 05:38:00,54.3,52.0,30.35,NNW,332,0.0,1.0,91,0.00,,,0.00,weatherlink.com 1.10,2013-06-10 09:38:00,
2013-06-10 05:53:00,54.9,52.0,30.36,NE,50,0.0,1.0,90,0.00,,,0.00,weatherlink.com 1.10,2013-06-10 09:53:00,
2013-06-10 06:08:00,55.4,52.0,30.35,NE,50,0.0,1.0,89,0.00,,,0.00,weatherlink.com 1.10,2013-06-10 10:08:00,
2013-06-10 06:23:00,55.3,52.0,30.35,NW,318,0.0,2.0,89,0.00,,,0.00,weatherlink.com 1.10,2013-06-10 10:23:00,
2013-06-10 06:38:00,55.6,53.0,30.35,NW,318,0.0,2.0,90,0.00,,,0.00,weatherlink.com 1.10,2013-06-10 10:38:00,
2013-06-10 06:53:00,55.8,53.0,30.35,NW,318,0.0,2.0,90,0.00,,,0.00,weatherlink.com 1.10,2013-06-10 10:53:00,
2013-06-10 07:08:00,56.2,53.0,30.34,NW,305,0.0,0.0,90,0.00,,,0.00,weatherlink.com 1.10,2013-06-10 11:08:00,
2013-06-10 07:23:00,56.5,53.0,30.35,NW,305,0.0,2.0,89,0.00,,,0.00,weatherlink.com 1.10,2013-06-10 11:23:00,
2013-06-10 07:38:00,57.7,54.0,30.34,North,354,0.0,4.0,87,0.00,,,0.00,weatherlink.com 1.10,2013-06-10 11:38:00,
2013-06-10 07:54:00,57.4,54.0,30.35,SW,233,0.0,3.0,89,0.00,,,0.00,weatherlink.com 1.10,2013-06-10 11:54:00,
2013-06-10 08:09:00,58.0,54.0,30.35,SW,225,0.0,8.0,86,0.00,,,0.00,weatherlink.com 1.10,2013-06-10 12:09:00,
2013-06-10 08:24:00,57.1,54.0,30.35,West,267,0.0,1.0,88,0.01,,,0.01,weatherlink.com 1.10,2013-06-10 12:24:00,
2013-06-10 08:39:00,56.7,55.0,30.34,NNW,337,1.0,1.0,94,0.04,,,0.04,weatherlink.com 1.10,2013-06-10 12:39:00,
2013-06-10 08:54:00,56.9,56.0,30.34,West,259,0.0,2.0,95,0.05,,,0.05,weatherlink.com 1.10,2013-06-10 12:54:00,
2013-06-10 09:24:00,57.9,56.0,30.34,SE,125,0.0,3.0,94,0.04,,,0.05,weatherlink.com 1.10,2013-06-10 13:24:00,
2013-06-10 09:39:00,58.2,56.0,30.34,SSW,210,0.0,3.0,93,0.02,,,0.06,weatherlink.com 1.10,2013-06-10 13:39:00,
2013-06-10 09:54:00,57.9,56.0,30.33,SSW,201,2.0,4.0,93,0.02,,,0.07,weatherlink.com 1.10,2013-06-10 13:54:00,
2013-06-10 10:09:00,57.5,56.0,30.32,ESE,122,3.0,5.0,93,0.04,,,0.09,weatherlink.com 1.10,2013-06-10 14:09:00,
2013-06-10 10:24:00,57.2,55.0,30.32,SSW,197,2.0,7.0,92,0.06,,,0.11,weatherlink.com 1.10,2013-06-10 14:24:00,
2013-06-10 10:39:00,57.5,56.0,30.32,ESE,121,0.0,4.0,94,0.06,,,0.12,weatherlink.com 1.10,2013-06-10 14:39:00,
2013-06-10 10:54:00,58.0,57.0,30.31,ENE,63,2.0,5.0,95,0.06,,,0.13,weatherlink.com 1.10,2013-06-10 14:54:00,
2013-06-10 11:09:00,58.4,57.0,30.31,SW,221,1.0,6.0,94,0.05,,,0.14,weatherlink.com 1.10,2013-06-10 15:09:00,
2013-06-10 11:24:00,58.8,57.0,30.30,SSE,154,1.0,4.0,93,0.04,,,0.15,weatherlink.com 1.10,2013-06-10 15:24:00,
2013-06-10 11:39:00,57.9,56.0,30.31,South,182,0.0,7.0,94,0.04,,,0.16,weatherlink.com 1.10,2013-06-10 15:39:00,
2013-06-10 11:54:00,57.5,56.0,30.31,SW,217,0.0,7.0,94,0.04,,,0.17,weatherlink.com 1.10,2013-06-10 15:54:00,
2013-06-10 12:09:00,57.4,56.0,30.30,South,169,5.0,12.0,95,0.07,,,0.21,weatherlink.com 1.10,2013-06-10 16:09:00,
2013-06-10 12:24:00,57.5,56.0,30.29,SSE,164,2.0,8.0,96,0.09,,,0.24,weatherlink.com 1.10,2013-06-10 16:24:00,
2013-06-10 12:54:00,57.4,56.0,30.29,SW,220,2.0,8.0,96,0.10,,,0.27,weatherlink.com 1.10,2013-06-10 16:54:00,
2013-06-10 13:09:00,57.2,56.0,30.28,South,177,0.0,6.0,96,0.09,,,0.30,weatherlink.com 1.10,2013-06-10 17:09:00,
2013-06-10 13:24:00,57.2,56.0,30.27,NE,40,2.0,9.0,96,0.07,,,0.31,weatherlink.com 1.10,2013-06-10 17:24:00,
2013-06-10 13:39:00,57.6,57.0,30.26,SW,229,1.0,6.0,96,0.07,,,0.33,weatherlink.com 1.10,2013-06-10 17:39:00,
2013-06-10 13:54:00,57.8,57.0,30.26,SSE,151,0.0,12.0,96,0.07,,,0.34,weatherlink.com 1.10,2013-06-10 17:54:00,
2013-06-10 14:09:00,57.7,57.0,30.25,SW,217,0.0,6.0,96,0.07,,,0.37,weatherlink.com 1.10,2013-06-10 18:09:00,
2013-06-10 14:24:00,57.9,57.0,30.24,NE,41,0.0,9.0,97,0.09,,,0.40,weatherlink.com 1.10,2013-06-10 18:24:00,
2013-06-10 14:39:00,58.2,57.0,30.24,SSE,150,0.0,7.0,97,0.08,,,0.41,weatherlink.com 1.10,2013-06-10 18:39:00,
2013-06-10 14:54:00,58.5,58.0,30.23,NE,50,1.0,6.0,97,0.10,,,0.44,weatherlink.com 1.10,2013-06-10 18:54:00,
2013-06-10 15:09:00,58.8,58.0,30.23,SSE,156,2.0,8.0,97,0.09,,,0.46,weatherlink.com 1.10,2013-06-10 19:09:00,
2013-06-10 15:24:00,59.1,58.0,30.22,SE,131,2.0,5.0,97,0.12,,,0.52,weatherlink.com 1.10,2013-06-10 19:24:00,
2013-06-10 15:39:00,59.3,59.0,30.21,SW,214,2.0,9.0,97,0.12,,,0.54,weatherlink.com 1.10,2013-06-10 19:39:00,
2013-06-10 15:54:00,59.2,58.0,30.20,ENE,63,2.0,12.0,97,0.12,,,0.56,weatherlink.com 1.10,2013-06-10 19:54:00,
2013-06-10 16:09:00,59.1,58.0,30.20,South,188,3.0,9.0,97,0.12,,,0.58,weatherlink.com 1.10,2013-06-10 20:09:00,
2013-06-10 16:24:00,59.1,58.0,30.19,ENE,78,4.0,10.0,97,0.09,,,0.61,weatherlink.com 1.10,2013-06-10 20:24:00,
2013-06-10 16:39:00,59.1,58.0,30.19,SSW,198,3.0,10.0,97,0.09,,,0.63,weatherlink.com 1.10,2013-06-10 20:39:00,
2013-06-10 16:54:00,59.1,58.0,30.19,NE,44,4.0,8.0,97,0.09,,,0.65,weatherlink.com 1.10,2013-06-10 20:54:00,
2013-06-10 17:09:00,58.9,58.0,30.18,SE,134,4.0,16.0,97,0.12,,,0.70,weatherlink.com 1.10,2013-06-10 21:09:00,
2013-06-10 17:24:00,58.7,58.0,30.17,South,181,2.0,16.0,97,0.12,,,0.73,weatherlink.com 1.10,2013-06-10 21:24:00,
2013-06-10 17:40:00,58.3,58.0,30.16,SW,231,6.0,12.0,97,0.13,,,0.76,weatherlink.com 1.10,2013-06-10 21:40:00,
2013-06-10 17:55:00,58.2,57.0,30.16,SSW,211,3.0,12.0,97,0.13,,,0.78,weatherlink.com 1.10,2013-06-10 21:55:00,
2013-06-10 18:10:00,58.0,57.0,30.15,SE,146,5.0,12.0,97,0.11,,,0.81,weatherlink.com 1.10,2013-06-10 22:10:00,
2013-06-10 18:25:00,57.8,57.0,30.15,SSE,150,5.0,11.0,97,0.10,,,0.83,weatherlink.com 1.10,2013-06-10 22:25:00,
2013-06-10 18:40:00,57.6,57.0,30.15,SE,133,3.0,11.0,97,0.09,,,0.85,weatherlink.com 1.10,2013-06-10 22:40:00,
2013-06-10 18:55:00,57.4,57.0,30.14,SW,232,5.0,17.0,97,0.10,,,0.88,weatherlink.com 1.10,2013-06-10 22:55:00,
2013-06-10 19:10:00,57.3,57.0,30.14,SW,215,3.0,15.0,97,0.09,,,0.90,weatherlink.com 1.10,2013-06-10 23:10:00,
2013-06-10 19:25:00,57.2,57.0,30.13,SW,219,4.0,9.0,98,0.07,,,0.90,weatherlink.com 1.10,2013-06-10 23:25:00,
2013-06-10 19:40:00,57.1,57.0,30.14,ESE,121,3.0,12.0,98,0.06,,,0.91,weatherlink.com 1.10,2013-06-10 23:40:00,
2013-06-10 19:55:00,57.2,57.0,30.13,ESE,110,3.0,11.0,98,0.04,,,0.92,weatherlink.com 1.10,2013-06-10 23:55:00,
2013-06-10 20:10:00,57.1,56.0,30.12,South,190,5.0,16.0,97,0.03,,,0.93,weatherlink.com 1.10,2013-06-11 00:10:00,
2013-06-10 20:25:00,57.0,56.0,30.12,South,189,2.0,13.0,97,0.03,,,0.93,weatherlink.com 1.10,2013-06-11 00:25:00,
2013-06-10 20:40:00,56.8,56.0,30.11,South,190,1.0,12.0,98,0.02,,,0.93,weatherlink.com 1.10,2013-06-11 00:40:00,
2013-06-10 20:55:00,56.7,56.0,30.11,West,271,2.0,13.0,98,0.01,,,0.93,weatherlink.com 1.10,2013-06-11 00:55:00,
2013-06-10 21:10:00,56.6,56.0,30.11,SW,229,5.0,9.0,98,0.00,,,0.93,weatherlink.com 1.10,2013-06-11 01:10:00,
2013-06-10 21:25:00,56.5,56.0,30.10,SSE,160,9.0,9.0,98,0.00,,,0.93,weatherlink.com 1.10,2013-06-11 01:25:00,
2013-06-10 21:40:00,56.5,56.0,30.10,NNW,330,3.0,11.0,98,0.00,,,0.93,weatherlink.com 1.10,2013-06-11 01:40:00,
2013-06-10 21:55:00,56.5,56.0,30.10,NNE,20,2.0,10.0,98,0.00,,,0.93,weatherlink.com 1.10,2013-06-11 01:55:00,
2013-06-10 22:10:00,56.5,56.0,30.09,SW,222,4.0,11.0,98,0.00,,,0.93,weatherlink.com 1.10,2013-06-11 02:10:00,
2013-06-10 22:25:00,56.5,56.0,30.09,South,191,2.0,7.0,98,0.01,,,0.94,weatherlink.com 1.10,2013-06-11 02:25:00,
2013-06-10 22:40:00,56.4,56.0,30.08,NE,54,5.0,7.0,98,0.03,,,0.96,weatherlink.com 1.10,2013-06-11 02:40:00,
2013-06-10 22:55:00,56.3,56.0,30.07,South,172,1.0,6.0,98,0.04,,,0.97,weatherlink.com 1.10,2013-06-11 02:55:00,
2013-06-10 23:10:00,56.3,56.0,30.07,SW,231,3.0,9.0,98,0.05,,,0.98,weatherlink.com 1.10,2013-06-11 03:10:00,
2013-06-10 23:25:00,56.2,56.0,30.06,WNW,292,3.0,7.0,98,0.06,,,1.00,weatherlink.com 1.10,2013-06-11 03:25:00,
2013-06-10 23:40:00,56.1,56.0,30.06,ESE,115,2.0,13.0,98,0.08,,,1.04,weatherlink.com 1.10,2013-06-11 03:40:00,
2013-06-10 23:55:00,56.1,56.0,30.05,SSW,204,1.0,7.0,98,0.13,,,1.10,weatherlink.com 1.10,2013-06-11 03:55:00,